Location: Berville
(49.1893°N, 2.0748°E)
Time: 17:29:19
(UTC+00:00)

ATLAS 5 CENTAUR R/B - Pass Details

Date: 08 February 2023
Orbit: 460 x 1178 km, 63.3° (Epoch: 24 March)

Event Time Altitude Azimuth Distance (km) Brightness Sun altitude
Rises 20:12:13 0° 319° (NW) 2,968 5.8 -31.7°
Reaches altitude 10° 20:14:26 10° 326° (NNW) 2,156 4.9 -32.0°
Enters shadow 20:16:38 26° 343° (NNW) 1,454 3.6 -32.4°
